Regional Weather Roundup
Issued by NWS Huntsville, AL

Home | Current Version | Previous Version | Text Only | Print | Product List | Glossary On
Versions: 1 2 3 4 5 6 7 8 9 10 11 12 13 14 15 16 17 18 19 20 21 22 23 24 25 26 27 28 29 30 31 32 33 34 35 36 37 38 39 40 41 42 43 44 45 46 47 48 49 50
000
ASUS44 KHUN 010624
RWRHUN

WEATHER ROUNDUP FOR THE TENNESSEE VALLEY
NATIONAL WEATHER SERVICE HUNTSVILLE AL
100 AM CDT FRI AUG 01 2014

ALZ001>004-010700-
NORTHWEST ALABAMA

CITY           SKY/WX    TMP DP  RH WIND       PRES   REMARKS
COURTLAND HCN    N/A     64 N/A N/A CALM        N/A
RUSSELLVILLE     N/A     63 N/A N/A MISG        N/A
SHOALS AIRPORT CLEAR     66  62  87 CALM      30.07S
6HR MIN TEMP:  64; 6HR MAX TEMP:  79;

SHOALS TVA RES   N/A     64 N/A N/A MISG        N/A
$$

ALZ005>007-016-010700-
NORTH CENTRAL ALABAMA

CITY           SKY/WX    TMP DP  RH WIND       PRES   REMARKS
CULLMAN AG STN   N/A     64 N/A N/A CALM        N/A
DECATUR AP     CLEAR     63  62  97 CALM      30.06F
6HR MIN TEMP:  62; 6HR MAX TEMP:  79;

HUNTSVILLE AP  CLEAR     68  63  84 CALM      30.06F
6HR MIN TEMP:  68; 6HR MAX TEMP:  81;

HUN NWS/UAH      N/A     69  61  77 E1          N/A
MERIDIANVILLE  CLEAR     61  57  88 CALM      30.07F
VINEMONT AP      N/A     66  63  91 CALM      30.08F
$$

ALZ008>010-010700-
NORTHEAST ALABAMA

CITY           SKY/WX    TMP DP  RH WIND       PRES   REMARKS
ALBERTVILLE    MOCLDY    68  68 100 E6        30.06F
CROSSVILLE       N/A     66 N/A N/A CALM        N/A
FORT PAYNE     MOCLDY    68  61  77 E3        30.07F
SCOTTSBORO AP    N/A     66  66 100 CALM      30.08S
SCOTTSBORO HCN   N/A     66 N/A N/A MISG        N/A
VALLEY HEAD      N/A     70 N/A N/A MISG        N/A
$$

TNZ076-096-097-010700-
SOUTHEASTERN MIDDLE TENNESSEE

CITY           SKY/WX    TMP DP  RH WIND       PRES   REMARKS
FAYETTEVILLE   CLEAR     63  59  88 CALM      30.07F
TULLAHOMA      CLEAR     63  59  88 CALM      30.09F
WINCHESTER     CLEAR     63  61  94 CALM      30.08F
$$

...SURROUNDING SITES...

CITY           SKY/WX    TMP DP  RH WIND       PRES   REMARKS
ATLANTA        CLOUDY    67  65  93 NE12      30.07F
ANNISTON       MOCLDY    70  67  90 E8        30.04F
BIRMINGHAM     CLOUDY    72  66  81 CALM      30.06S
CHATTANOOGA    MOCLDY    71  65  81 CALM      30.08F
CORINTH        FAIR      68  64  88 CALM      30.05F
DALTON         CLOUDY    68  66  94 CALM      30.06F
GADSDEN        MOCLDY    70  64  83 NE5       30.05F
GOLDEN TRNGL   MOCLDY    68  63  83 CALM      30.03F
HALEYVILLE     FAIR      62  62 100 CALM      30.09F
JACKSON TN     PTCLDY    67  64  90 CALM      30.06F
LEWISBURG      FAIR      61  58  90 CALM      30.07F
MEMPHIS        CLOUDY    73  66  78 N3        30.05F
MURFREESBORO   FAIR      67  63  87 CALM      30.06F
NASHVILLE      MOCLDY    68  62  81 CALM      30.07F
OXFORD MS      FAIR      68  66  94 CALM      30.06F
ROME           CLOUDY    69  64  84 CALM      30.06F
SAVANNAH       CLEAR     64  64 100 CALM      30.06F
TUPELO         MOCLDY    70  66  87 CALM      30.04F
TUSCALOOSA     PTCLDY    67  63  87 CALM      30.03F
$$

...GULF COAST WEATHER...

CITY           SKY/WX    TMP DP  RH WIND       PRES   REMARKS
GULFPORT       CLOUDY    79  68  69 CALM      29.99F
PASCAGOULA     MOCLDY    68  67  96 CALM      30.00F
MOBILE         PTCLDY    69  67  93 CALM      30.01F
GULF SHORES    CLEAR     72  66  81 CALM      29.98S
PENSACOLA      CLEAR     71  68  90 N5        29.97F
DESTIN         MOCLDY    78  69  73 CALM      29.97F
PANAMA CITY    PTCLDY    72  67  83 NW2       29.97
APPALACHICOLA  CLEAR     68  65  90 CALM      29.96F
$$



USA.gov is the U.S. government's official web portal to all federal, state and local government web resources and services.